Jaipur, India

5:36 PM IST on September 25, 2017 (GMT +0530)
Jaipur

Weather History for VIJP - October, 2013

Change the Weather History Date:

Tuesday, October 1, 2013

  Actual Average Record
Temperature  
Mean Temperature 81 °F -  
Max Temperature 87 °F - - ()
Min Temperature 75 °F - - ()
Cooling Degree Days 16    
Growing Degree Days 31 (Base 50)    
Moisture  
Dew Point 73 °F    
Average Humidity 75    
Maximum Humidity 91    
Minimum Humidity 61    
Precipitation  
Precipitation 0.00 in - - ()
Sea Level Pressure  
Sea Level Pressure 29.76 in    
Wind  
Wind Speed 6 mph ()    
Max Wind Speed 12 mph    
Max Gust Speed -    
Visibility 2.0 miles    
Events      
T = Trace of Precipitation, MM = Missing Value Source: Averaged Metar Reports

Daily Weather History Graph

Daily Weather History Graph

Search for Another Location

Airport or City:

Trip Planner

Search our weather history database for the weather conditions in past years. The results will help you decide how hot, cold, wet, or windy it might be!

Date:

Astronomy

Oct. 01, 2013 Rise Set
Actual Time 6:19 AM IST 6:13 PM IST
Civil Twilight 5:56 AM IST 6:36 PM IST
Nautical Twilight 5:29 AM IST 7:03 PM IST
Astronomical Twilight 5:02 AM IST 7:30 PM IST
Moon 2:45 AM IST (10/1) 3:46 PM IST (10/1)
Length of Visible Light 12h 40m
Length of Day
11h 54m
Waning Crescent, 15% of the Moon is Illuminated
Oct 1
Waning Crescent
Oct 5
New
Oct 12
First Quarter
Oct 19
Full
Oct 27
Last Quarter

Hourly Weather History & Observations

Time (IST) Temp. Heat Index Dew Point Humidity Pressure Visibility Wind Dir Wind Speed Gust Speed Precip Events Conditions
12:00 AM 78.8 °F - 73.4 °F 83% 29.74 in 1.9 mi East 6.9 mph - N/A   Scattered Clouds
1:00 AM 77.0 °F - 73.4 °F 89% 29.74 in 1.9 mi East 6.9 mph - N/A   Scattered Clouds
2:00 AM 77.0 °F - 73.4 °F 89% 29.74 in 1.9 mi East 5.8 mph - N/A   Scattered Clouds
2:30 AM 77 °F - 74 °F 89% 29.68 in 1 mi ENE 4.6 mph - -   Mist
5:30 AM 76 °F - 74 °F 91% 29.69 in 1 mi ENE 6.9 mph - -   Mist
7:00 AM 77.0 °F - 73.4 °F 89% 29.77 in 1.9 mi ENE 6.9 mph - N/A   Partly Cloudy
8:00 AM 78.8 °F - 75.2 °F 89% 29.80 in 1.9 mi East 8.1 mph - N/A   Scattered Clouds
8:30 AM 79 °F - 75 °F 84% 29.73 in 1 mi East 9.2 mph - -   Mist
9:00 AM 82.4 °F 89.5 °F 75.2 °F 79% 29.83 in 2.5 mi East 9.2 mph - N/A   Haze
10:00 AM 84.2 °F 92.3 °F 75.2 °F 74% 29.83 in 2.5 mi East 9.2 mph - N/A   Haze
11:30 AM 84 °F - 74 °F 66% 29.74 in 2 mi East 9.2 mph - -   Haze
12:00 PM 84.2 °F 90.9 °F 73.4 °F 70% 29.80 in 3.1 mi East 11.5 mph - N/A   Haze
1:00 PM 87.8 °F 95.6 °F 73.4 °F 62% 29.80 in 3.1 mi East 10.4 mph - N/A   Haze
2:00 PM 86.0 °F 93.4 °F 73.4 °F 66% 29.77 in 3.1 mi NE 8.1 mph - N/A   Haze
3:00 PM 86.0 °F 91.8 °F 71.6 °F 62% 29.74 in 2.5 mi ENE 9.2 mph - N/A   Haze
4:00 PM 86.0 °F 93.4 °F 73.4 °F 66% 29.74 in 2.5 mi ENE 6.9 mph - N/A   Haze
5:00 PM 86.0 °F 93.4 °F 73.4 °F 66% 29.74 in 2.5 mi East 8.1 mph - N/A   Haze
5:30 PM 85 °F - 73 °F 61% 29.66 in 2 mi ENE 9.2 mph - -   Haze
6:00 PM 84.2 °F 90.9 °F 73.4 °F 70% 29.74 in 2.5 mi ENE 5.8 mph - N/A   Haze
7:00 PM 82.4 °F 88.2 °F 73.4 °F 74% 29.77 in 2.2 mi ENE 5.8 mph - N/A   Haze
8:00 PM 82.4 °F 87.2 °F 71.6 °F 70% 29.80 in 2.2 mi ENE 5.8 mph - N/A   Haze
8:30 PM 82 °F - 72 °F 66% 29.74 in 1 mi Calm Calm - -   Haze
10:00 PM 80.6 °F 84.6 °F 71.6 °F 74% 29.83 in 1.9 mi ENE 6.9 mph - N/A   Haze
11:00 PM 78.8 °F - 73.4 °F 83% 29.86 in 1.9 mi ENE 8.1 mph - N/A   Haze
11:30 PM 79 °F - 72 °F 75% 29.77 in 1 mi East 6.9 mph - -   Haze